Location: Rounton
(54.4000°N, 1.3500°W)
Time: 07:28:18
(UTC+00:00)

Vanguard 1 Rocket - Pass Details

Date: 04 December 2021
Orbit: 651 x 4224 km, 34.3° (Epoch: 19 January)

Event Time Altitude Azimuth Distance (km) Brightness Sun altitude
Rises 06:04:52 0° 258° (WSW) 5,751 - -16.6°
Exits shadow 06:07:49 - 251° (WSW) 5,264 10.8 -16.2°
Reaches altitude 10° 06:08:28 10° 249° (WSW) 5,171 10.8 -16.1°
Maximum altitude 06:22:47 36° 191° (S) 4,676 11.0 -14.1°
Drops below altitude 10° 06:43:43 10° 136° (SE) 7,415 13.2 -11.3°
Sets 06:50:24 0° 129° (SE) 8,439 14.0 -10.4°
